Flag for U.S.A. Weather past 2 weeks in Dover, Delaware, U.S.A.

Now
75 °F

Overcast.


Feels Like: 72 °F
Forecast: 69 / 84 °F
Wind: 7 mph from Northwest

Location: Dover Air Force Base

Current Time: Sep 3, 2014 at 4:32:04 AM

Latest Report: Sep 3, 2014 at 3:58 AM


Visibility: 10 mi

Pressure: 29.91 "Hg

Humidity: 100%

Dew point: 75 °F

Location of DoverLocation

Historic Weather in Dover — Graph

°F

Dover temperature yesterday

Maximum temperature yesterday: 93 °F (at 3:58 PM)
Minimum temperature yesterday: 74 °F (at 5:58 AM)
Average temperature yesterday: 83 °F

Past Weeks' High & Low Weather Summary

 TemperatureHumidityPressure
High93 °F (Sep 2, 3:58 PM)100% (Aug 20, 3:58 AM)30.25 "Hg (Aug 20, 3:58 AM)
Low54 °F (Aug 29, 5:58 AM)42% (Aug 20, 4:58 PM)29.82 "Hg (Aug 19, 2:58 AM)
Average74 °F80%30.03 "Hg
* Reported Aug 19 2:58 AM — Sep 3 2:58 AM, Dover, Weather by CustomWeather, © 2014

Note: Actual official high and low records may vary slightly from our data, if they occured in-between our weather recording intervals... More about our weather records

Advertising

Dover weather history for previous 24 hours

 ConditionsComfort  
Time TempWeatherWind HumidityBarometerVisibility
2:58 AM
Sep 3
75 °FPartly cloudy.5 mph100%29.91 "Hg10 mi
1:58 AM75 °FLight rain. Passing clouds.7 mph100%29.90 "Hg10 mi
12:58 AM74 °FPassing clouds.No wind100%29.90 "Hg10 mi
11:58 PM
Sep 2
76 °FClear.2 mph89%29.88 "Hg10 mi
10:58 PM78 °FPassing clouds.6 mph88%29.87 "Hg10 mi
9:58 PM83 °FMostly cloudy.7 mph70%29.89 "Hg10 mi
8:58 PM83 °FOvercast.7 mph68%29.88 "Hg10 mi
7:58 PM84 °FPassing clouds.6 mph66%29.86 "Hg10 mi
6:58 PM87 °FSunny.7 mph58%29.85 "Hg10 mi
5:58 PM91 °FSunny.10 mph51%29.87 "Hg10 mi
4:58 PM92 °FSunny.8 mph49%29.88 "Hg10 mi
3:58 PM93 °FPassing clouds.13 mph47%29.89 "Hg10 mi
2:58 PM93 °FSunny.8 mph48%29.91 "Hg10 mi
1:58 PM92 °FSunny.9 mph49%29.93 "Hg10 mi
12:58 PM89 °FPartly sunny.9 mph55%29.94 "Hg10 mi
11:58 AM89 °FPartly sunny.13 mph57%29.96 "Hg10 mi
10:58 AM89 °FScattered clouds.9 mph57%29.97 "Hg10 mi
9:58 AM86 °FSunny.9 mph66%29.97 "Hg10 mi
8:58 AM82 °FSunny.8 mph78%29.97 "Hg10 mi
7:58 AM77 °FSunny.6 mph100%29.97 "Hg10 mi
6:58 AM74 °FClear.7 mph100%29.96 "Hg10 mi
5:58 AM74 °FClear.8 mph100%29.94 "Hg10 mi
4:58 AM74 °FClear.8 mph100%29.93 "Hg10 mi
Weather by CustomWeather, © 2014

See weather overviewHow to use our weather pages